This demonstration page uses our WeatherBlox Daily Observations layout. Learn more.

40.92945, -100.16068

Hourly Observations for April 4, 2020

Temp ( °F °C ) Dew Point ( °F °C ) Humidity (%) Winds ( mph kmh ) Pressure ( in mb ) Visibility ( mi km ) Precip ( " mm )
12:15 am 00:15 Clear 24 -4.2 22 -5.6 90 90 E 5 7 30.38 1029 10 16.0934 0 0
12:35 am 00:35 Clear 24 -4.5 22 -5.8 91 91 E 5 7 30.38 1029 10 16.0934 0 0
12:55 am 00:55 Clear 23 -5 21 -6 93 93 SE 3 6 30.4 1029 10 16.0934 0 0
1:15 am 01:15 Clear 24 -4.5 22 -5.7 91 91 ESE 3 6 30.39 1029 10 16.0934 0 0
1:35 am 01:35 Clear 24 -4.7 22 -5.7 93 93 SE 3 6 30.4 1029 10 16.0934 0 0
1:55 am 01:55 Clear 24 -4.6 22 -5.7 92 92 Calm 30.39 1029 10 16.0934 0 0
2:15 am 02:15 Clear 23 -5 21 -6 93 93 E 3 6 30.4 1029 10 16.0934 0 0
2:35 am 02:35 Clear 23 -5.2 21 -6.1 93 93 Calm 30.39 1029 10 16.0934 0 0
2:55 am 02:55 Clear 22 -5.7 21 -6.3 96 96 Calm 30.39 1029 10 16.0934 0 0
3:15 am 03:15 Clear 22 -5.7 21 -6.3 96 96 Calm 30.39 1029 10 16.0934 0 0
3:35 am 03:35 Clear 21 -5.9 20 -6.5 96 96 Calm 30.38 1029 10 16.0934 0 0
3:55 am 03:55 Clear 21 -6 20 -6.5 96 96 Calm 30.38 1029 10 16.0934 0 0
4:15 am 04:15 Clear 20 -6.5 19 -7.1 96 96 Calm 30.37 1029 10 16.0934 0 0
4:35 am 04:35 Clear 21 -6.2 20 -6.7 96 96 Calm 30.37 1028 10 16.0934 0 0
4:55 am 04:55 Clear 20 -6.6 19 -7.1 96 96 Calm 30.38 1029 10 16.0934 0 0
5:15 am 05:15 Clear 20 -6.5 19 -7.1 96 96 Calm 30.36 1028 10 16.0934 0 0
5:35 am 05:35 Clear 20 -6.4 19 -7 96 96 Calm 30.36 1028 10 16.0934 0 0
5:55 am 05:55 Clear 20 -6.8 19 -7.5 95 95 Calm 30.37 1028 10 16.0934 0 0
6:15 am 06:15 Partly Cloudy 20 -6.7 19 -7.4 95 95 Calm 30.37 1028 10 16.0934 0 0
6:35 am 06:35 Partly Cloudy 20 -6.5 19 -7.1 96 96 Calm 30.36 1028 10 16.0934 0 0
6:55 am 06:55 Clear 20 -6.6 19 -7.2 96 96 Calm 30.37 1028 10 16.0934 0 0
7:15 am 07:15 Clear 20 -6.5 19 -7.1 96 96 Calm 30.36 1028 10 16.0934 0 0
7:35 am 07:35 Sunny 20 -6.6 19 -7.2 96 96 Calm 30.36 1028 10 16.0934 0 0
7:55 am 07:55 Partly Cloudy 21 -6.1 20 -6.7 96 96 Calm 30.35 1028 10 16.0934 0 0
8:15 am 08:15 Cloudy 22 -5.3 22 -5.8 96 96 Calm 30.34 1027 10 16.0934 0 0
8:35 am 08:35 Mostly Cloudy 23 -5 22 -5.6 96 96 SE 3 6 30.33 1027 10 16.0934 0 0
8:55 am 08:55 Mostly Cloudy 25 -4 24 -4.7 95 95 SSE 6 9 30.32 1027 10 16.0934 0 0
9:15 am 09:15 Mostly Cloudy 26 -3.6 24 -4.6 93 93 SSE 7 11 30.31 1027 10 16.0934 0 0
9:35 am 09:35 Mostly Cloudy 26 -3.3 24 -4.3 93 93 SSE 7 11 30.3 1026 10 16.0934 0 0
9:55 am 09:55 Cloudy 26 -3.4 24 -4.3 94 94 ESE 3 6 30.3 1026 10 16.0934 0 0
10:10 am 10:10 Cloudy 27 -3 25 -4 93 93 SE 6 9 30.3 1026 10 16.0934 0 0
10:35 am 10:35 Cloudy 27 -2.6 25 -3.8 92 92 E 7 11 30.28 1026 10 16.0934 0 0
10:55 am 10:55 Mostly Cloudy 28 -2 26 -3.5 90 90 SE 8 13 30.28 1025 10 16.0934 0 0
11:15 am 11:15 Mostly Cloudy 30 -1.3 26 -3.3 86 86 SE 7 11 30.28 1025 10 16.0934 0 0
11:35 am 11:35 Partly Cloudy 31 -0.3 27 -2.8 83 83 ESE 7 11 30.26 1025 10 16.0934 0 0
11:55 am 11:55 Sunny 32 0.1 27 -2.7 82 82 ESE 9 15 30.25 1024 10 16.0934 0 0
12:15 pm 12:15 Sunny 34 1.2 27 -2.8 75 75 SE 12 19 30.23 1024 10 16.0934 0 0
12:35 pm 12:35 Sunny 37 2.6 29 -1.9 73 73 ESE 9 15 30.2 1023 10 16.0934 0 0
12:55 pm 12:55 Sunny 37 2.9 27 -2.6 67 67 ESE 7 11 30.19 1022 10 16.0934 0 0
1:15 pm 13:15 Sunny 39 3.8 27 -2.9 62 62 SSE 8 13 30.17 1022 10 16.0934 0 0
1:35 pm 13:35 Sunny 40 4.6 28 -2.2 62 62 SE 8 13 30.14 1021 10 16.0934 0 0
1:55 pm 13:55 Sunny 42 5.5 29 -1.8 60 60 SE 9 15 30.12 1020 10 16.0934 0 0
2:15 pm 14:15 Sunny 44 6.9 30 -1.1 57 57 SE 15 24 30.1 1019 10 16.0934 0 0
2:35 pm 14:35 Sunny 46 7.5 28 -2 51 51 SE 15 24 30.08 1019 10 16.0934 0 0
2:55 pm 14:55 Sunny 47 8.6 29 -1.8 48 48 SE 14 22 30.05 1018 10 16.0934 0 0
3:15 pm 15:15 Sunny 49 9.2 27 -2.7 43 43 SE 16 26 30.04 1017 10 16.0934 0 0
3:35 pm 15:35 Sunny 50 10.2 25 -3.7 38 38 SSE 14 22 30.01 1016 10 16.0934 0 0
3:55 pm 15:55 Sunny 51 10.6 24 -4.6 34 34 SSE 12 19 30 1016 10 16.0934 0 0
4:15 pm 16:15 Sunny 52 11 24 -4.7 33 33 SSE 15 24 29.98 1015 10 16.0934 0 0
4:35 pm 16:35 Sunny 52 11.1 22 -5.4 31 31 SSE 16 26 29.98 1015 10 16.0934 0 0
4:55 pm 16:55 Sunny 52 11.1 23 -5 32 32 S 13 20 29.98 1015 10 16.0934 0 0
5:15 pm 17:15 Sunny 52 11 23 -5 32 32 SSE 15 24 29.98 1015 10 16.0934 0 0
5:35 pm 17:35 Sunny 52 11.1 23 -5 32 32 S 14 22 29.98 1015 10 16.0934 0 0
5:55 pm 17:55 Sunny 52 11.1 24 -4.6 33 33 SSE 17 28 29.98 1015 10 16.0934 0 0
6:15 pm 18:15 Sunny 51 10.8 24 -4.5 34 34 S 16 26 29.98 1015 10 16.0934 0 0
6:35 pm 18:35 Sunny 51 10.5 24 -4.3 35 35 SSE 15 24 29.99 1015 10 16.0934 0 0
6:55 pm 18:55 Sunny 50 10.2 23 -5.2 34 34 SSE 17 28 29.98 1015 10 16.0934 0 0
7:15 pm 19:15 Sunny 49 9.6 22 -5.4 35 35 SSE 14 22 29.99 1016 10 16.0934 0 0
7:35 pm 19:35 Sunny 48 8.7 24 -4.4 40 40 SSE 13 20 30 1016 10 16.0934 0 0
7:55 pm 19:55 Sunny 46 7.5 24 -4.6 42 42 SSE 10 17 30.01 1016 10 16.0934 0 0
8:15 pm 20:15 Clear 43 5.9 24 -4.6 47 47 SSE 7 11 30.04 1017 10 16.0934 0 0
8:35 pm 20:35 Clear 40 4.5 23 -5 50 50 SSE 9 15 30.05 1018 10 16.0934 0 0
8:55 pm 20:55 Clear 42 5.5 22 -5.4 46 46 SE 9 15 30.05 1018 10 16.0934 0 0
9:15 pm 21:15 Clear 40 4.6 23 -5.1 50 50 SSE 9 15 30.06 1018 10 16.0934 0 0
9:35 pm 21:35 Clear 39 4.1 23 -5.1 52 52 SSE 10 17 30.06 1018 10 16.0934 0 0
9:55 pm 21:55 Clear 38 3.4 23 -5.1 54 54 SSE 10 17 30.08 1019 10 16.0934 0 0
10:15 pm 22:15 Clear 37 3 23 -5.2 55 55 SSE 9 15 30.09 1019 10 16.0934 0 0
10:35 pm 22:35 Clear 36 2.1 23 -5.2 59 59 SSE 8 13 30.1 1019 10 16.0934 0 0
10:55 pm 22:55 Clear 33 0.8 22 -5.4 64 64 SSE 10 17 30.11 1020 10 16.0934 0 0
11:15 pm 23:15 Clear 35 1.7 23 -5 61 61 SSE 9 15 30.1 1019 10 16.0934 0 0
11:35 pm 23:35 Clear 36 2 23 -4.9 61 61 SE 9 15 30.1 1019 10 16.0934 0 0
11:55 pm 23:55 Clear 35 1.9 23 -4.9 61 61 SSE 9 15 30.1 1019 10 16.0934 0 0

Powered by AerisWeather